This is the latest recevied weather packets stored in our database for station/object W7JFO-3. If no packets are shown the sender has not sent any weather packets the latest 10 day(s).
| Time | Temp. | Humidity | Pressure | Rain* | Wind** | Luminosity | Snow |
|---|---|---|---|---|---|---|---|
| 1777852907 | 20° C | 29% | 1006.2 hPa | 0 mm | - | 403 W/m² | - |
| 1777852007 | 20° C | 30% | 1006.3 hPa | 0 mm | - | 441 W/m² | - |
| 1777851108 | 20° C | 29% | 1006.6 hPa | 0 mm | - | 494 W/m² | - |
| 1777850208 | 20° C | 28% | 1006.7 hPa | 0 mm | - | 538 W/m² | - |
| 1777849308 | 20° C | 30% | 1006.6 hPa | 0 mm | - | 555 W/m² | - |
| 1777848408 | 19.44° C | 30% | 1006.8 hPa | 0 mm | - | 547 W/m² | - |
| 1777847508 | 19.44° C | 31% | 1007 hPa | 0 mm | - | 487 W/m² | - |
| 1777846608 | 18.89° C | 31% | 1007.3 hPa | 0 mm | - | 679 W/m² | - |
| 1777845708 | 18.89° C | 31% | 1007.4 hPa | 0 mm | - | 707 W/m² | - |
| 1777844808 | 18.89° C | 32% | 1007.5 hPa | 0 mm | - | 719 W/m² | - |
| 1777843908 | 18.89° C | 32% | 1007.7 hPa | 0 mm | - | 761 W/m² | - |
| 1777843008 | 18.33° C | 33% | 1007.8 hPa | 0 mm | - | 777 W/m² | - |
| 1777842108 | 17.78° C | 35% | 1008.4 hPa | 0 mm | - | 793 W/m² | - |
| 1777841208 | 17.22° C | 37% | 1008.5 hPa | 0 mm | - | 415 W/m² | - |
| 1777840308 | 17.78° C | 36% | 1008.9 hPa | 0 mm | - | 90 W/m² | - |
| 1777839408 | 17.22° C | 36% | 1008.9 hPa | 0 mm | - | 457 W/m² | - |
| 1777838508 | 17.22° C | 36% | 1009.3 hPa | 0 mm | - | 823 W/m² | - |
| 1777837608 | 16.67° C | 37% | 1009.3 hPa | 0 mm | - | 793 W/m² | - |
| 1777836708 | 16.11° C | 37% | 1009.9 hPa | 0 mm | - | 684 W/m² | - |
| 1777835808 | 15° C | 34% | 1010.4 hPa | 0 mm | - | 745 W/m² | - |
| 1777834908 | 15° C | 39% | 1010.6 hPa | 0 mm | - | 824 W/m² | - |
| 1777834008 | 14.44° C | 40% | 1010.8 hPa | 0 mm | - | 879 W/m² | - |
| 1777833108 | 14.44° C | 39% | 1011 hPa | 0 mm | - | 849 W/m² | - |
| 1777832208 | 13.33° C | 42% | 1011.2 hPa | 0 mm | - | 823 W/m² | - |
| 1777831308 | 12.22° C | 47% | 1011.3 hPa | 0 mm | - | 784 W/m² | - |
* Rain latest hour (hover to see other rain measurements)
** Current wind speed in m/s (hover to see current wind gust speed)